Hope, British Columbia

12:10 AM PDT on August 17, 2017 (GMT -0700)
Hope

Weather History for CYHE - October, 2013

Change the Weather History Date:

Tuesday, October 22, 2013

  Actual Average Record
Temperature  
Mean Temperature 55 °F -  
Max Temperature 65 °F 48 °F 68 °F (2002)
Min Temperature 45 °F 37 °F 36 °F (2012)
Degree Days  
Heating Degree Days 10    
Growing Degree Days 5 (Base 50)    
Moisture  
Dew Point 47 °F    
Average Humidity 79    
Maximum Humidity 94    
Minimum Humidity 47    
Precipitation  
Precipitation 0.00 in 0.34 in - ()
Sea Level Pressure  
Sea Level Pressure 30.13 in    
Wind  
Wind Speed 8 mph ()    
Max Wind Speed 14 mph    
Max Gust Speed 18 mph    
Visibility 9.0 miles    
Events      
Averages and records for this station are not official NWS values.
T = Trace of Precipitation, MM = Missing Value Source: Averaged Metar Reports

Daily Weather History Graph

Daily Weather History Graph

Search for Another Location

Airport or City:

Trip Planner

Search our weather history database for the weather conditions in past years. The results will help you decide how hot, cold, wet, or windy it might be!

Date:

Astronomy

Oct. 22, 2013 Rise Set
Actual Time 7:38 AM PDT 6:01 PM PDT
Civil Twilight 7:05 AM PDT 6:33 PM PDT
Nautical Twilight 6:28 AM PDT 7:11 PM PDT
Astronomical Twilight 5:51 AM PDT 7:47 PM PDT
Moon 8:31 PM PDT (10/22) 11:25 AM PDT (10/22)
Length of Visible Light 11h 28m
Length of Day
10h 22m
Waning Gibbous, 86% of the Moon is Illuminated
Oct 22
Waning Gibbous
Oct 26
Last Quarter
Nov 3
New
Nov 9
First Quarter
Nov 17
Full

Hourly Weather History & Observations

Time (PDT) Temp. Windchill Dew Point Humidity Pressure Visibility Wind Dir Wind Speed Gust Speed Precip Events Conditions
12:00 AM 50.0 °F - 48.2 °F 94% 30.17 in 9.0 mi East 9.2 mph - N/A   Clear
1:00 AM 50.0 °F - 46.4 °F 87% 30.17 in 9.0 mi East 10.4 mph - N/A   Clear
2:00 AM 49 °F - 47 °F 89% 30.17 in - East 9.2 mph - -  
2:00 AM 50.0 °F - 46.4 °F 87% 30.17 in 9.0 mi East 10.4 mph - N/A   Clear
3:00 AM 48.2 °F - 46.4 °F 93% 30.17 in 9.0 mi East 8.1 mph - N/A   Clear
4:00 AM 48.2 °F - 46.4 °F 93% 30.17 in 9.0 mi East 9.2 mph - N/A   Clear
5:00 AM 47 °F - 46 °F 92% 30.16 in - ENE 5.8 mph - -  
5:00 AM 48.2 °F - 44.6 °F 87% 30.17 in 9.0 mi East 8.1 mph - N/A   Clear
6:00 AM 46.4 °F 42.9 °F 44.6 °F 93% 30.17 in 9.0 mi East 6.9 mph - N/A   Clear
7:00 AM 46.4 °F 42.4 °F 44.6 °F 93% 30.18 in 9.0 mi East 8.1 mph - N/A   Clear
8:00 AM 47 °F - 45 °F 91% 30.18 in - East 9.2 mph - -  
8:00 AM 46.4 °F 41.5 °F 44.6 °F 93% 30.19 in 9.0 mi East 10.4 mph - N/A   Clear
9:00 AM 48.2 °F - 44.6 °F 87% 30.19 in 9.0 mi East 10.4 mph - N/A   Clear
10:00 AM 51.8 °F - 46.4 °F 82% 30.19 in 9.0 mi East 13.8 mph - N/A   Clear
11:00 AM 57 °F - 47 °F 61% 30.16 in - East 11.5 mph - -  
11:00 AM 57.2 °F - 46.4 °F 67% 30.17 in 9.0 mi East 11.5 mph 17.3 mph N/A   Clear
12:00 PM 59.0 °F - 48.2 °F 67% 30.14 in 9.0 mi ESE 12.7 mph 18.4 mph N/A   Clear
1:00 PM 62.6 °F - 48.2 °F 59% 30.11 in 9.0 mi ESE 10.4 mph - N/A   Clear
2:00 PM 64 °F - 49 °F 47% 30.08 in - East 9.2 mph - -  
2:00 PM 64.4 °F - 48.2 °F 56% 30.08 in 9.0 mi ESE 9.2 mph - N/A   Clear
3:00 PM 64.4 °F - 50.0 °F 59% 30.07 in 9.0 mi SE 6.9 mph - N/A   Clear
4:00 PM 59.0 °F - 48.2 °F 67% 30.06 in 9.0 mi SE 5.8 mph - N/A   Clear
5:00 PM 56 °F - 48 °F 67% 30.05 in - NE 2.3 mph - -  
5:00 PM 57.2 °F - 48.2 °F 72% 30.06 in 9.0 mi Variable 2.3 mph - N/A   Clear
6:00 PM 57.2 °F - 48.2 °F 72% 30.06 in 9.0 mi East 4.6 mph - N/A   Clear
7:00 PM 55.4 °F - 48.2 °F 77% 30.06 in 9.0 mi East 6.9 mph - N/A   Clear
8:00 PM 54 °F - 49 °F 77% 30.07 in - East 9.2 mph - -  
8:00 PM 53.6 °F - 48.2 °F 82% 30.07 in 9.0 mi East 9.2 mph - N/A   Clear
9:00 PM 51.8 °F - 48.2 °F 88% 30.09 in 9.0 mi East 6.9 mph - N/A   Clear
10:00 PM 51.8 °F - 46.4 °F 82% 30.11 in 9.0 mi ENE 6.9 mph - N/A   Clear
11:00 PM 50.0 °F - 46.4 °F 87% 30.11 in 9.0 mi East 9.2 mph - N/A   Clear